Weather History for Ovda Intl Airport, Israel

Change the Weather History Date:

Tuesday, November 27, 2012

  Actual Average Record
Temperature  
Mean Temperature 60 °F -  
Max Temperature 73 °F 62 °F 80 °F (2008)
Min Temperature 46 °F 44 °F 37 °F (2011)
Degree Days  
Heating Degree Days 6    
Growing Degree Days 10 (Base 50)    
Moisture  
Dew Point 43 °F    
Average Humidity 60    
Maximum Humidity 87    
Minimum Humidity 29    
Precipitation  
Precipitation 0.00 in - - ()
Sea Level Pressure  
Sea Level Pressure 30.07 in    
Wind  
Wind Speed 4 mph ()    
Max Wind Speed 10 mph    
Max Gust Speed -    
Averages and records for this station are not official NWS values.
T = Trace of Precipitation, MM = Missing Value Source: Averaged Metar Reports

Daily Weather History Graph

Daily Weather History Graph

Search for Another Location

Airport:

Trip Planner

Search our weather history database for the weather conditions in past years. The results will help you decide how hot, cold, wet, or windy it might be!

Date:

Astronomy

Nov. 27, 2012 Rise Set
Actual Time 6:15 AM IST 4:40 PM IST
Civil Twilight 5:49 AM IST 5:06 PM IST
Nautical Twilight 5:20 AM IST 5:35 PM IST
Astronomical Twilight 4:51 AM IST 6:04 PM IST
Moon 3:56 PM IST (11/27) 5:04 AM IST (11/27)
Length of Visible Light 11h 16m
Length of Day
10h 25m
Waxing Gibbous, 99% of the Moon is Illuminated
Nov 27
Waxing Gibbous
Nov 28
Full
Dec 6
Last Quarter
Dec 13
New
Dec 20
First Quarter

Hourly Weather History & Observations

Time (IST) Temp. Dew Point Humidity Pressure Visibility Wind Dir Wind Speed Gust Speed Precip Events Conditions
12:50 AM 51.8 °F 42.8 °F 71% 30.09 in - SW 3.5 mph - N/A   Clear
1:50 AM 50.0 °F 41.0 °F 71% 30.09 in - WSW 5.8 mph - N/A   Clear
2:50 AM 50.0 °F 42.8 °F 76% 30.06 in - SW 4.6 mph - N/A   Clear
3:50 AM 48.2 °F 42.8 °F 82% 30.06 in - SW 6.9 mph - N/A   Clear
4:50 AM 48.2 °F 44.6 °F 87% 30.06 in - WSW 3.5 mph - N/A   Clear
5:50 AM 46.4 °F 42.8 °F 87% 30.06 in - Variable 1.2 mph - N/A   Clear
6:50 AM 48.2 °F 44.6 °F 87% 30.09 in - Variable 2.3 mph - N/A   Clear
7:50 AM 51.8 °F 46.4 °F 82% 30.09 in - SW 3.5 mph - N/A   Clear
8:50 AM 59.0 °F 48.2 °F 67% 30.09 in - Variable 2.3 mph - N/A   Clear
9:50 AM 62.6 °F 48.2 °F 59% 30.09 in - ENE 4.6 mph - N/A   Clear
10:50 AM 66.2 °F 46.4 °F 49% 30.09 in - ESE 3.5 mph - N/A   Clear
11:50 AM 68.0 °F 42.8 °F 40% 30.06 in - Variable 2.3 mph - N/A   Clear
12:50 PM 69.8 °F 41.0 °F 35% 30.04 in - NNE 2.3 mph - N/A   Clear
1:50 PM 73.4 °F 39.2 °F 29% 30.04 in - ENE 4.6 mph - N/A   Clear
2:50 PM 71.6 °F 42.8 °F 35% 30.04 in - NE 8.1 mph - N/A   Clear
3:50 PM 69.8 °F 41.0 °F 35% 30.04 in - NNE 10.4 mph - N/A   Clear
4:50 PM 64.4 °F 42.8 °F 45% 30.04 in - NE 10.4 mph - N/A   Clear
5:50 PM 62.6 °F 44.6 °F 52% 30.06 in - NNE 10.4 mph - N/A   Clear
6:50 PM 60.8 °F 44.6 °F 55% 30.06 in - North 9.2 mph - N/A   Clear
7:50 PM 59.0 °F 44.6 °F 59% 30.09 in - North 8.1 mph - N/A   Clear
8:50 PM 57.2 °F 42.8 °F 59% 30.09 in - ENE 4.6 mph - N/A   Clear
9:50 PM 55.4 °F 42.8 °F 63% 30.09 in - Variable 2.3 mph - N/A   Clear
10:50 PM 53.6 °F 41.0 °F 62% 30.09 in - Variable 1.2 mph - N/A   Clear
11:50 PM 53.6 °F 41.0 °F 62% 30.09 in - Calm Calm - N/A   Clear